Home > Time Zones > World Clock > Weather > Iran > Yazd > Past weeks

Flag for Iran Weather past 2 weeks in Yazd, Iran

Now
84 °F

Clear.


Feels Like: 81 °F
Forecast: 71 / 96 °F
Wind: 2 mph from Southwest

Location: Yazd Airport

Current Time: Oct 2, 2014 at 8:17:16 PM

Latest Report: Oct 2, 2014 at 7:30 PM


Visibility: 10 mi

Pressure: 30.07 "Hg

Humidity: 11%

Dew point: 25 °F

Location of YazdLocation

Historic Weather in Yazd — Graph

°F

Yazd temperature yesterday

Maximum temperature yesterday: 97 °F (at 4:30 PM)
Minimum temperature yesterday: 70 °F (at 5:00 AM)
Average temperature yesterday: 83 °F

Past Weeks' High & Low Weather Summary

 TemperatureHumidityPressure
High99 °F (Sep 20, 4:30 PM)22% (Oct 1, 3:30 AM)30.18 "Hg (Oct 1, 3:30 AM)
Low64 °F (Sep 28, 5:30 AM)4% (Sep 23, 4:00 PM)29.86 "Hg (Sep 17, 7:30 PM)
Average84 °F11%30.01 "Hg
* Reported Sep 17 7:30 PM — Oct 2 7:00 PM, Yazd, Weather by CustomWeather, © 2014

Note: Actual official high and low records may vary slightly from our data, if they occured in-between our weather recording intervals... More about our weather records

Advertising

Yazd weather history for previous 24 hours

 ConditionsComfort  
Time TempWeatherWind HumidityBarometerVisibility
7:00 PM
Oct 2
86 °FClear.2 mph11%30.07 "Hg10 mi
6:30 PM88 °FPassing clouds.2 mph11%30.07 "HgN/A
6:00 PM90 °FPassing clouds.2 mph10%30.07 "HgN/A
5:30 PM91 °FPassing clouds.2 mph9%30.07 "HgN/A
5:00 PM93 °FPassing clouds.2 mph7%30.07 "HgN/A
4:30 PM95 °FPassing clouds.5 mph7%30.07 "HgN/A
3:30 PM97 °FPassing clouds.2 mph7%30.07 "HgN/A
2:30 PM95 °FPassing clouds.2 mph7%30.07 "HgN/A
1:30 PM95 °FPassing clouds.2 mph7%30.09 "HgN/A
12:30 PM93 °FPassing clouds.5 mph8%30.12 "HgN/A
12:00 PM91 °FSunny.7 mph10%30.12 "Hg10 mi
11:30 AM91 °FSunny.9 mph10%30.15 "Hg10 mi
11:00 AM90 °FSunny.9 mph11%30.15 "Hg10 mi
10:30 AM88 °FSunny.9 mph12%30.18 "Hg10 mi
10:00 AM86 °FSunny.9 mph12%30.18 "Hg10 mi
9:30 AM84 °FSunny.7 mph13%30.18 "Hg10 mi
9:00 AM84 °FSunny.5 mph14%30.18 "Hg10 mi
8:30 AM82 °FSunny.5 mph15%30.18 "Hg10 mi
8:00 AM81 °FSunny.2 mph16%30.18 "Hg10 mi
7:30 AM79 °FSunny.5 mph15%30.18 "Hg10 mi
7:00 AM75 °FSunny.5 mph15%30.15 "Hg10 mi
6:30 AM73 °FSunny.7 mph16%30.15 "Hg10 mi
6:00 AM73 °FClear.5 mph15%30.15 "Hg10 mi
5:30 AM73 °FClear.5 mph15%30.12 "Hg10 mi
4:30 AM75 °FClear.7 mph16%30.12 "Hg10 mi
3:30 AM75 °FClear.5 mph18%30.12 "Hg10 mi
2:30 AM77 °FClear.5 mph17%30.09 "Hg10 mi
1:30 AM77 °FClear.5 mph17%30.09 "Hg10 mi
12:30 AM79 °FClear.5 mph15%30.09 "Hg10 mi
11:30 PM
Oct 1
79 °FClear.5 mph16%30.07 "Hg10 mi
11:00 PM81 °FClear.No wind14%30.07 "Hg10 mi
10:30 PM82 °FClear.7 mph12%30.07 "Hg10 mi
10:00 PM81 °FClear.5 mph14%30.07 "Hg10 mi
9:30 PM81 °FClear.5 mph14%30.07 "Hg10 mi
9:00 PM81 °FClear.5 mph14%30.07 "Hg10 mi
8:30 PM82 °FClear.5 mph12%30.07 "Hg10 mi
8:00 PM84 °FClear.5 mph11%30.07 "Hg10 mi
Weather by CustomWeather, © 2014

See weather overviewHow to use our weather pages